User: anonymous   Login
Location: Unspecified
(0.0000°N, 0.0000°E)
Time: 18:20:23
(UTC+00:00)
Language:

STARLINK-30457 - Orbit

View from above orbital plane
View from above orbital plane
View from above satellite
View from above satellite

Ground track
Ground track

The orbit is defined by the following mean orbital elements,

1 57900U          26145.52771976 +.00000000 +00000-0 +16687-3 0 00007
2 57900  43.0028 240.5969 0001710 267.2388  92.8268 15.27579968    04
Epoch (UTC): 25 May 2026 12:39:54
Eccentricity: 0.0001710
inclination: 43.0028°
perigee height: 482 km
apogee height: 484 km
right ascension of ascending node: 240.5969°
argument of perigee: 267.2388°
revolutions per day: 15.27579968
mean anomaly at epoch: 92.8268°

The dashed part of the orbit path shows where the satellite is in the earth's shadow,  

DLR